Terminal Aerodrome Forecast
Issued by NWS Melbourne, FL

Home | Current Version | Previous Version | Text Only | Print | Product List | Glossary On
Versions: 1 2 3 4 5 6 7 8 9 10 11 12 13 14 15 16 17 18 19 20 21 22 23 24 25
000
FTUS42 KMLB 201500 AAA
TAFMCO
TAF AMD
KMCO 201510Z 2015/2112 17005KT P6SM SCT100 BKN250
     FM202300 09004KT P6SM SCT080 OVC120
     FM210800 VRB03KT 5SM BR BKN025 OVC060=

USA.gov is the U.S. government's official web portal to all federal, state and local government web resources and services.